STARLINK-1546 (46346 NORAD) Tracking and Keplerian Element Data

This shows tracking and keplerian element data for the satellite.

Feedback or suggestion? Click here.




ElementValue
Catalog46346
NameSTARLINK-1546
Epoch Orbit2362
Epoch Day27.16668981
Epoch Year2021
RAAN76.403
Inclination52.9993
Eccentricity0.0007753
Argument of Perigee290.4595
Mean Anonmoly49.0057
Mean Motion15.53942201
Decay Rate0.00014933
L11 46346U 20062X 21027.16668981 .00014933 00000-0 23403-3 0 9995
L22 46346 52.9993 76.4030 0007753 290.4595 49.0057 15.53942201 23628

Live tracking and technical data element details for STARLINK-1546 (NORAD 46346). STARLINK-1546 can be tracked NOW for your location showing map with azimuth and elevation plus other details from your city location.

Track the satellite on the map from your city or location and see movement details for azimuth, elevation, latitude, longitude, range, height, and movement on the map or in text.







IsCatalogInMostPopularTable: catalog: 46346, numindb: 49
Update: records affected: 1



GetName: 46346 STARLINK-1546

Hit Count: updated at: Thu, 28 Jan 2021 12:26:06 GMT